Regional Weather Roundup
Issued by NWS

Home | Current Version | Previous Version | Text Only | Print | Product List | Glossary On
Versions: 1 2 3 4 5 6 7 8 9 10 11 12 13 14 15 16 17 18 19 20 21 22 23 24 25 26 27 28 29 30 31 32 33 34 35 36 37 38 39 40 41 42 43 44 45 46 47 48 49 50
000
ASUS43 KLOT 251310
RWRIL

ILLINOIS REGIONAL WEATHER ROUNDUP
NATIONAL WEATHER SERVICE CHICAGO/ROMEOVILLE IL
ISSUED BY NATIONAL WEATHER SERVICE LINCOLN IL
800 AM CDT TUE APR 25 2017

NOTE:  "FAIR" INDICATES FEW OR NO CLOUDS BELOW 12,000 FEET...WITH
       NO SIGNIFICANT WEATHER AND/OR OBSTRUCTIONS TO VISIBILITY.

       STATIONS INDICATED WITH AN "*" ARE NOT UNDER NWS QUALITY
       CONTROL.

ILZ001-002-007-009-015-016-024-251400-
NORTHWEST ILLINOIS...

CITY           SKY/WX    TMP DP  RH WIND       PRES   REMARKS
MOLINE         MOSUNNY   60  43  53 S9        29.62R
SAVANNA*       MOSUNNY   60  41  49 SE6       29.63S
STERLING*      CLOUDY    59  42  53 SE7       29.66R
$$

ILZ003-004-008-010-011-017>019-251400-
NORTH CENTRAL ILLINOIS...

CITY           SKY/WX    TMP DP  RH WIND       PRES   REMARKS
ROCKFORD       PTSUNNY   59  45  59 S13       29.68F
FREEPORT*      CLOUDY    55  42  61 SE12      29.67R
ROCHELLE*      CLOUDY    58  43  56 SE15G21   29.69R
DE KALB*       CLOUDY    57  49  74 SE12      29.70S
$$

ILZ005-006-012>014-020>023-251400-
NORTHEAST ILLINOIS...

CITY           SKY/WX    TMP DP  RH WIND       PRES   REMARKS
O`HARE         PTSUNNY   60  50  69 S13       29.71R
MIDWAY         PTSUNNY   61  51  70 S12G21    29.73R
NORTHERLY IS*  NOT AVBL
AURORA*        MOSUNNY   59  51  75 SE12      29.71R
LANSING*       SUNNY     59  54  82 SE10G16   29.74S
JOLIET*        CLOUDY    59  53  80 S9        29.72S
WAUKEGAN       CLOUDY    54  49  83 SE13      29.71R
WEST CHICAGO   MOSUNNY   59  53  80 S13       29.70R
WHEELING       SUNNY     60  52  74 S15       29.73R
KANKAKEE*      MOSUNNY   59  52  77 SE9       29.74S
MORRIS*        CLOUDY    59  50  71 SE3       29.70S
ROMEOVILLE     PTSUNNY   58  54  86 S13       29.72R
$$

LMZ740>745-777-779-251400-
SOUTHERN LAKE MICHIGAN...

STATION/POSITION TIME  TEMP    WIND        PRES    WAVE
                       AIR SEA DIR/SP/G            HT/PER
                 (UTC) (F)     (DEG/KT/KT) (MB)    (FT/S)
SOUTHERN BUOY    1150   45 41  100/ 12/ 14 1007.4    1/ 3
WAUKEGAN HARBOR  1230   51     160/ 10/ 13   N/A
WILMETTE HARBOR  NOT AVBL
MONTROSE BEACH   NOT AVBL
NORTHERLY ISLAND 1300   60     150/ 11       N/A
HARRISON CRIB    1230   55     170/ 14/ 14   N/A
CALUMET HARBOR   1248   59     160/ 10/ 15 1006.2R
CALUMET BEACH    NOT AVBL
BURNS HARBOR     1240   59     150/ 10/ 17 1007.8R
MICHIGAN CITY    NOT AVBL
$$

ILZ025>027-034>036-040-047-049-050-058-095>099-251400-
WEST CENTRAL ILLINOIS...

CITY           SKY/WX    TMP DP  RH WIND       PRES   REMARKS
GALESBURG*     SUNNY     59  45  60 S8        29.65R
MACOMB*        SUNNY     60  45  56 S12       29.67R
JACKSONVILLE*  PTSUNNY   58  47  66 S9        29.68R
MOUNT STERLING SUNNY     58  46  63 S8        29.65R
PITTSFIELD*    SUNNY     61  49  64 S7        29.67R
QUINCY         SUNNY     61  44  53 S10       29.64R
$$

ILZ028>032-037-038-041>044-048-051>054-059>061-251400-
CENTRAL ILLINOIS...

CITY           SKY/WX    TMP DP  RH WIND       PRES   REMARKS
BLOOMINGTON*   MOSUNNY   56  43  61 S10       29.71S
DECATUR        PTSUNNY   56  47  71 S6        29.72R
LACON*         CLOUDY    55  41  58 SE8       29.67S
LINCOLN*       CLOUDY    60  49  65 S5        29.69S
LITCHFIELD*    CLOUDY    58  49  73 S9        29.70S
PEORIA         CLOUDY    59  45  59 S7        29.68S
PONTIAC*       PTSUNNY   62  46  56 S9        29.72R
SPRINGFIELD    CLOUDY    64  49  57 S12       29.69S
TAYLORVILLE*   MOSUNNY   58  47  67 S7        29.70S
$$

ILZ033-039-045-046-055>057-062-063-251400-
EAST CENTRAL ILLINOIS...

CITY           SKY/WX    TMP DP  RH WIND       PRES   REMARKS
CHAMPAIGN      PTSUNNY   58  47  66 SE8       29.74R
DANVILLE*      MOSUNNY   59  53  80 S8        29.73S
MATTOON        PTSUNNY   58  52  80 SE8       29.73R
PARIS*         SUNNY     61  54  78 SE12      29.76S
RANTOUL*       MOSUNNY   59  51  75 SE7       29.74S
$$

ILZ064-065-069-070-074-075-100>102-251400-
SOUTHWEST AND SOUTH CENTRAL ILLINOIS...

CITY           SKY/WX    TMP DP  RH WIND       PRES   REMARKS
ALTON          PTSUNNY   57  50  77 SE6       29.70R
BELLEVILLE     SUNNY     58  56  94 E3        29.70R
CENTRALIA*     SUNNY     60  54  79 S7        29.72S
EAST ST LOUIS  SUNNY     59  51  75 SE9       29.69S
MT VERNON*     SUNNY     57  54  89 CALM      29.74R
SALEM*         SUNNY     61  51  70 S6        29.73R
$$

ILZ066>068-071>073-076>078-251400-
SOUTHEAST ILLINOIS...

CITY           SKY/WX    TMP DP  RH WIND       PRES   REMARKS
CARMI*         SUNNY     59  57  94 SE3       29.76R
EFFINGHAM*     MOSUNNY   56  51  83 E7        29.75R
FAIRFIELD*     SUNNY     58  55  91 CALM      29.74S
FLORA*         PTSUNNY   57  53  87 SE3       29.75R
LAWRENCEVILLE  MOSUNNY   61  55  81 S7        29.77R
MT CARMEL*     PTSUNNY   59  54  82 SE6       29.76R
OLNEY-NOBLE*   CLOUDY    56  56  99 SE5       29.75S
ROBINSON*      MOSUNNY   59  53  82 S8        29.77S
$$

ILZ079>094-251400-
FAR SOUTHERN ILLINOIS...

CITY           SKY/WX    TMP DP  RH WIND       PRES   REMARKS
CARBONDALE     MOSUNNY   58  57  97 S6        29.73S
CAIRO          SUNNY     59  56  88 SE6       29.75S
HARRISBURG*    SUNNY     58  56  95 CALM      29.75S
MARION         PTSUNNY   59  59 100 SE7       29.75R
METROPOLIS*    SUNNY     60  56  86 S3        29.77R
SPARTA*        SUNNY     58  53  84 S7        29.73R
$$

ABBREVIATIONS USED IN REMARKS:
       TC -- TEMPERATURE IN CELSIUS
      WCI -- WIND CHILL INDEX
       HX -- HEAT INDEX
      VSB -- VISIBILITY IN MILES



USA.gov is the U.S. government's official web portal to all federal, state and local government web resources and services.